Weather History for Richlands, VA

Change the Weather History Date:

Saturday, December 7, 2013

  Actual Average (KBLF) Record (KBLF)
Temperature  
Mean Temperature 33 °F 39 °F  
Max Temperature 35 °F 47 °F 71 °F (2004)
Min Temperature 30 °F 32 °F 0 °F (1977)
Degree Days  
Heating Degree Days 32 26  
Month to date heating degree days 173  
Since 1 July heating degree days 1076  
Cooling Degree Days 0 0  
Month to date cooling degree days 0  
Year to date cooling degree days 853  
Moisture  
Dew Point 31 °F    
Average Humidity 95    
Maximum Humidity 96    
Minimum Humidity 93    
Precipitation  
Precipitation 0.00 in 0.09 in 1.71 in (2011)
Month to date precipitation 0.68  
Year to date precipitation 37.40  
Snow  
Snow 0.00 in - - ()
Month to date snowfall  
Since 1 July snowfall  
Snow Depth -    
Sea Level Pressure  
Sea Level Pressure 30.32 in    
Wind  
Wind Speed 5 mph (North)    
Max Wind Speed 10 mph    
Max Gust Speed -    
Visibility 4 miles    
Events Fog , Snow    
T = Trace of Precipitation, MM = Missing Value Source: NWS Daily Summary

Daily Weather History Graph

Daily Weather History Graph

Search for Another Location

Airport:

Trip Planner

Search our weather history database for the weather conditions in past years. The results will help you decide how hot, cold, wet, or windy it might be!

Date:

Astronomy

Dec. 07, 2013 Rise Set
Actual Time 7:27 AM EST 5:10 PM EST
Civil Twilight 6:58 AM EST 5:38 PM EST
Nautical Twilight 6:26 AM EST 6:11 PM EST
Astronomical Twilight 5:54 AM EST 6:42 PM EST
Moon 11:16 AM EST (12/7) 10:44 PM EST (12/7)
Length of Visible Light 10h 40m
Length of Day
9h 42m
Waxing Crescent, 29% of the Moon is Illuminated
Dec 7
Waxing Crescent
Dec 9
First Quarter
Dec 17
Full
Dec 25
Last Quarter
Jan 1
New

Hourly Weather History & Observations

Time (EST) Temp. Windchill Dew Point Humidity Pressure Visibility Wind Dir Wind Speed Gust Speed Precip Events Conditions
12:15 AM 36.1 °F 30.6 °F 34.9 °F 95% 30.15 in 10.0 mi NNW 6.9 mph - N/A   Overcast
12:35 AM 36.1 °F 30.6 °F 34.7 °F 94% 30.16 in 0.2 mi NNW 6.9 mph - N/A Fog Fog
12:55 AM 35.6 °F 29.9 °F 34.3 °F 95% 30.16 in 0.5 mi NNW 6.9 mph - N/A Fog Fog
1:15 AM 35.2 °F 27.6 °F 34.0 °F 95% 30.17 in 0.2 mi NNW 10.4 mph - N/A Fog Fog
1:35 AM 34.9 °F 27.7 °F 33.8 °F 96% 30.17 in 0.5 mi NNW 9.2 mph - N/A Fog Fog
1:55 AM 34.9 °F 28.3 °F 33.8 °F 96% 30.18 in 0.2 mi NNW 8.1 mph - N/A Fog Fog
2:15 AM 34.7 °F 29.6 °F 33.4 °F 95% 30.19 in 0.2 mi NNW 5.8 mph - N/A Fog Fog
2:35 AM 34.7 °F 28.8 °F 33.4 °F 95% 30.19 in 0.2 mi NNW 6.9 mph - N/A Fog Fog
2:55 AM 34.7 °F 29.6 °F 33.4 °F 95% 30.20 in 0.5 mi NNW 5.8 mph - N/A Fog Fog
3:15 AM 34.7 °F 31.8 °F 33.4 °F 95% 30.22 in 0.5 mi NW 3.5 mph - N/A Fog Fog
3:35 AM 34.7 °F 31.8 °F 33.4 °F 95% 30.23 in 1.2 mi NNW 3.5 mph - N/A   Overcast
3:55 AM 34.2 °F - 32.9 °F 95% 30.23 in 7.0 mi Calm Calm - N/A   Overcast
4:15 AM 34.2 °F 31.2 °F 32.9 °F 95% 30.23 in 10.0 mi NNW 3.5 mph - N/A   Overcast
4:35 AM 34.0 °F 28.8 °F 32.5 °F 94% 30.24 in 7.0 mi NNW 5.8 mph - N/A   Overcast
4:55 AM 33.8 °F 28.6 °F 32.5 °F 95% 30.24 in 5.0 mi NNW 5.8 mph - N/A   Overcast
5:15 AM 33.8 °F 28.6 °F 32.4 °F 94% 30.25 in 10.0 mi NNW 5.8 mph - N/A   Overcast
5:35 AM 33.8 °F 30.8 °F 32.4 °F 94% 30.26 in 10.0 mi NW 3.5 mph - N/A   Overcast
5:55 AM 33.8 °F 27.7 °F 32.4 °F 94% 30.27 in 5.0 mi NNW 6.9 mph - N/A   Overcast
6:15 AM 33.8 °F 30.8 °F 32.0 °F 93% 30.27 in 10.0 mi NNW 3.5 mph - N/A   Overcast
6:35 AM 33.4 °F 28.1 °F 32.0 °F 94% 30.29 in 10.0 mi NNW 5.8 mph - N/A   Overcast
6:55 AM 33.3 °F 27.1 °F 32.0 °F 95% 30.30 in 5.0 mi NNW 6.9 mph - N/A   Overcast
7:15 AM 33.3 °F - 32.0 °F 95% 30.31 in 4.0 mi Calm Calm - N/A   Overcast
7:35 AM 33.1 °F 30.0 °F 32.0 °F 96% 30.31 in 1.5 mi NW 3.5 mph - N/A   Overcast
7:55 AM 33.1 °F - 32.0 °F 96% 30.32 in 1.0 mi Calm Calm - N/A   Overcast
8:15 AM 33.1 °F 30.0 °F 32.0 °F 96% 30.32 in 1.5 mi NNW 3.5 mph - N/A   Overcast
8:35 AM 33.1 °F 30.0 °F 32.0 °F 96% 30.33 in 0.5 mi NW 3.5 mph - N/A Fog Fog
8:55 AM 33.3 °F 30.2 °F 32.0 °F 95% 30.35 in 0.5 mi NW 3.5 mph - N/A Fog Fog
9:15 AM 33.1 °F - 32.0 °F 96% 30.36 in 2.0 mi Calm Calm - N/A Snow Light Snow
9:35 AM 33.1 °F 28.7 °F 32.0 °F 96% 30.35 in 3.0 mi NNW 4.6 mph - N/A Snow Light Snow
9:55 AM 33.3 °F 30.2 °F 32.0 °F 95% 30.36 in 1.5 mi NW 3.5 mph - N/A Snow Light Snow
10:15 AM 33.4 °F 28.1 °F 32.0 °F 94% 30.37 in 0.2 mi NNW 5.8 mph - N/A Snow Light Snow
10:35 AM 32.9 °F 28.5 °F 32.0 °F 96% 30.37 in 1.8 mi NW 4.6 mph - N/A Snow Light Snow
10:55 AM 33.3 °F 30.2 °F 32.0 °F 95% 30.37 in 1.5 mi NW 3.5 mph - N/A Snow Light Snow
11:15 AM 32.9 °F 28.5 °F 31.8 °F 96% 30.38 in 1.8 mi NNW 4.6 mph - N/A Snow Light Snow
11:35 AM 32.9 °F 28.5 °F 31.8 °F 96% 30.37 in 5.0 mi NNW 4.6 mph - N/A   Overcast
11:55 AM 33.1 °F 28.7 °F 32.0 °F 96% 30.37 in 3.0 mi NNW 4.6 mph - N/A Snow Light Snow
12:15 PM 33.1 °F 30.0 °F 32.0 °F 96% 30.36 in 3.0 mi NNW 3.5 mph - N/A   Overcast
12:35 PM 32.5 °F 27.1 °F 31.6 °F 96% 30.36 in 3.0 mi NNW 5.8 mph - N/A   Overcast
12:55 PM 33.1 °F 27.7 °F 32.0 °F 96% 30.35 in 7.0 mi NNW 5.8 mph - N/A   Overcast
1:15 PM 33.1 °F 30.0 °F 31.8 °F 95% 30.34 in 10.0 mi North 3.5 mph - N/A   Overcast
1:35 PM 33.1 °F 28.7 °F 31.5 °F 94% 30.33 in 5.0 mi North 4.6 mph - N/A   Overcast
1:55 PM 32.9 °F 27.5 °F 31.1 °F 93% 30.33 in 7.0 mi NNW 5.8 mph - N/A   Overcast
2:15 PM 32.4 °F 29.1 °F 31.1 °F 95% 30.33 in 5.0 mi North 3.5 mph - N/A   Overcast
2:35 PM 32.5 °F 26.2 °F 30.9 °F 94% 30.33 in 4.0 mi NNW 6.9 mph - N/A Snow Light Snow
2:55 PM 32.2 °F 25.0 °F 30.9 °F 95% 30.34 in 2.0 mi NNW 8.1 mph - N/A Snow Light Snow
3:15 PM 32.0 °F 27.5 °F 30.9 °F 96% 30.34 in 2.0 mi North 4.6 mph - N/A   Overcast
3:35 PM 32.2 °F 28.9 °F 30.9 °F 95% 30.34 in 4.0 mi North 3.5 mph - N/A   Overcast
3:55 PM 32.0 °F 28.7 °F 30.9 °F 96% 30.34 in 4.0 mi North 3.5 mph - N/A   Overcast
4:15 PM 32.0 °F - 30.7 °F 95% 30.36 in 4.0 mi Calm Calm - N/A   Overcast
4:35 PM 32.0 °F - 30.2 °F 93% 30.36 in 5.0 mi Calm Calm - N/A   Overcast
4:55 PM 32.0 °F - 30.4 °F 94% 30.37 in 1.0 mi Calm Calm - N/A   Overcast
5:15 PM 31.8 °F 26.2 °F 30.2 °F 94% 30.37 in 1.2 mi NNE 5.8 mph - N/A   Overcast
5:35 PM 31.8 °F 25.4 °F 30.2 °F 94% 30.37 in 4.0 mi NE 6.9 mph - N/A   Overcast
5:55 PM 31.3 °F - 29.8 °F 94% 30.37 in 3.0 mi Calm Calm - N/A   Overcast
6:15 PM 31.1 °F 27.7 °F 29.7 °F 94% 30.37 in 2.5 mi North 3.5 mph - N/A   Overcast
6:35 PM 31.6 °F 26.0 °F 30.0 °F 94% 30.38 in 3.0 mi ENE 5.8 mph - N/A   Overcast
6:55 PM 31.1 °F 26.4 °F 29.7 °F 94% 30.39 in 4.0 mi North 4.6 mph - N/A   Overcast
7:15 PM 31.3 °F 24.7 °F 29.7 °F 94% 30.40 in 4.0 mi NNE 6.9 mph - N/A   Overcast
7:35 PM 31.1 °F 25.4 °F 29.7 °F 94% 30.40 in 4.0 mi ENE 5.8 mph - N/A   Overcast
7:55 PM 31.1 °F 23.7 °F 29.3 °F 93% 30.40 in 5.0 mi NE 8.1 mph - N/A   Overcast
8:15 PM 31.1 °F 23.7 °F 29.3 °F 93% 30.39 in 5.0 mi NE 8.1 mph - N/A   Overcast
8:35 PM 31.1 °F 26.4 °F 29.3 °F 93% 30.38 in 5.0 mi ENE 4.6 mph - N/A   Overcast
8:55 PM 31.1 °F 23.1 °F 29.3 °F 93% 30.38 in 5.0 mi ENE 9.2 mph - N/A   Overcast
9:15 PM 30.9 °F 24.3 °F 29.1 °F 93% 30.38 in 5.0 mi NE 6.9 mph - N/A   Overcast
9:35 PM 31.1 °F - 29.3 °F 93% 30.38 in 4.0 mi Calm Calm - N/A   Overcast
9:55 PM 31.1 °F 26.4 °F 29.3 °F 93% 30.38 in 4.0 mi NE 4.6 mph - N/A   Overcast
10:15 PM 31.1 °F 25.4 °F 29.3 °F 93% 30.37 in 4.0 mi NE 5.8 mph - N/A   Overcast
10:35 PM 31.5 °F 26.8 °F 29.7 °F 93% 30.37 in 2.5 mi NE 4.6 mph - N/A   Overcast
10:55 PM 31.5 °F 25.8 °F 29.7 °F 93% 30.35 in 3.0 mi NE 5.8 mph - N/A   Overcast
11:15 PM 31.5 °F 25.8 °F 29.8 °F 94% 30.35 in 3.0 mi NNE 5.8 mph - N/A   Overcast
11:35 PM 31.6 °F 25.1 °F 30.0 °F 94% 30.34 in 3.0 mi NE 6.9 mph - N/A   Overcast
11:55 PM 31.6 °F 26.0 °F 30.0 °F 94% 30.34 in 5.0 mi NE 5.8 mph - N/A   Overcast